{"data":{"norad_id":57648,"intl_designator":"2023-122S","name":"STARLINK-30243","alt_names":[],"object_type":"PAYLOAD","status":"ACTIVE","operator":null,"country":"US","launch_date":"2023-08-17","launch_site_code":"AFETR","launch_vehicle":null,"mission":null,"orbit_class":"UNKNOWN","rcs_meters":null,"size_class":null,"mass_kg":null,"dimensions":null,"purposes":["comms"],"wikipedia_slug":null,"has_3d_model":false,"image_url":null,"decayed_at":null,"tle_current":{"epoch":"2026-05-25T01:08:35.599200Z","epoch_age_seconds":74173,"freshness":"FRESH","line1":"1 57648U 23122S   26145.04763425 -.00001910  00000+0 -59886-4 0  9991","line2":"2 57648  43.0053  21.3814 0001789 264.7308  95.3339 15.27586954153880","mean_motion":15.27586954,"eccentricity":0.0001789,"inclination_deg":43.0053,"raan_deg":21.3814,"arg_perigee_deg":264.7308,"mean_anomaly_deg":95.3339,"bstar":-5.9886e-5,"rev_number":15388,"period_min":94.266319585235,"perigee_km":481.80081087356,"apogee_km":484.25573580836,"semimajor_km":6861.165273341,"source":"CELESTRAK","updated_at":"2026-05-25T13:38:18.365550Z"}}}